Regional Weather Roundup
Issued by NWS Memphis, TN

Current Version | Previous Version | Text Only | Print | Product List | Glossary On
Versions: 1 2 3 4 5 6 7 8 9 10 11 12 13 14 15 16 17 18 19 20 21 22 23 24 25 26 27 28 29 30 31 32 33 34 35 36 37 38 39 40 41 42 43 44 45 46 47 48 49 50
000
ASUS44 KMEG 131110
RWRMEG
MEMPHIS CWA HOURLY WEATHER ROUNDUP
NATIONAL WEATHER SERVICE MEMPHIS TN
500 AM CST SAT FEB 13 2016

...WEST TENNESSEE...

CITY           SKY/WX    TMP DP  RH WIND       PRES   REMARKS
MEMPHIS INTL   PTCLDY    30  10  43 NE9       30.50R WCI  22
NWS MEMPHIS      N/A     27 N/A N/A MISG        N/A
JACKSON        PTCLDY    24  12  60 N14       30.51R WCI  12
LEXINGTON      CLEAR     21  10  63 N10       30.48R WCI  10
DYERSBURG      MOCLDY    25  10  54 NE14      30.54S WCI  13
UNION CITY     CLEAR     19  10  68 N12       30.53S WCI   7
PARIS          CLEAR     18   9  68 N8        30.51R WCI   7


...EASTERN ARKANSAS...

CITY           SKY/WX    TMP DP  RH WIND       PRES   REMARKS
JONESBORO      MOCLDY    27   8  44 NE10G20   30.53S WCI  17
WEST MEMPHIS   HAZE      27  14  58 NE16      30.52R VSB 1/2 WCI  15
BATESVILLE     CLOUDY    28  10  47 N6        30.54R WCI  22
NEWPORT        CLEAR     28  15  58 NE13      30.56R WCI  17
WALNUT RIDGE   CLOUDY    27   5  39 NE16      30.56R WCI  14
BLYTHEVILLE    MOCLDY    25  10  53 N22       30.56R WCI  10
SEARCY         CLOUDY    32  16  51 NE14      30.55R WCI  22
STUTTGART      CLOUDY    34  21  60 NE14      30.52R WCI  24
PINE BLUFF     CLOUDY    36  24  62 NE10      30.51R WCI  28
MONTICELLO     CLOUDY    40  25  55 NE8G20    30.46R WCI  34


...NORTH MISSISSIPPI...

CITY           SKY/WX    TMP DP  RH WIND       PRES   REMARKS
TUPELO         CLEAR     29  15  56 N18       30.47R WCI  16
OXFORD         CLEAR     27  14  59 N13G18    30.50R WCI  16
TUNICA         CLOUDY    30  16  55 N12       30.53R WCI  21
CORINTH        CLEAR     27  14  59 N7G17     30.49R WCI  19
GREENWOOD      CLOUDY    35  22  58 NE15      30.46R WCI  25
COLUMBUS       CLEAR     32  21  63 N10       30.43R WCI  24
STARKVILLE     FAIR      32  23  69 N6        30.44R WCI  26
GOLDEN TRIANGL CLEAR     32  19  59 N10       30.42R WCI  24


...SOUTHEAST MISSOURI...

CITY           SKY/WX    TMP DP  RH WIND       PRES   REMARKS
WEST PLAINS    CLOUDY    22   5  48 N13       30.52R WCI  10
POPLAR BLUFF   CLOUDY    22   4  46 N10       30.56R WCI  11
CAPE GIRARDEAU CLOUDY    19   6  57 N17       30.58R WCI   4


...NORTHWEST ALABAMA...

CITY           SKY/WX    TMP DP  RH WIND       PRES   REMARKS
MUSCLE SHOALS  CLEAR     27  13  55 N12       30.47R WCI  17


...MIDDLE TENNESSEE...

CITY           SKY/WX    TMP DP  RH WIND       PRES   REMARKS
NASHVILLE      CLEAR     23   8  52 N10       30.48R WCI  12
CLARKSVILLE    CLEAR     20  10  65 N13       30.52R WCI   7
COLUMBIA       CLEAR     23  16  74 N9        30.44R WCI  13


...WESTERN KENTUCKY...

CITY           SKY/WX    TMP DP  RH WIND       PRES   REMARKS
PADUCAH        CLEAR     18   6  59 N15       30.56R WCI   4
FORT CAMPBELL  CLEAR     19   7  59 N10       30.52R WCI   7


...CENTRAL ARKANSAS...

CITY           SKY/WX    TMP DP  RH WIND       PRES   REMARKS
LITTLE ROCK    CLOUDY    36  13  38 NE12      30.52R WCI  28


SKY/WX REPORTED AS FAIR MEANS FEW OR NO CLOUDS BELOW
12 THOUSAND FEET.




USA.gov is the U.S. government's official web portal to all federal, state and local government web resources and services.